This is the latest recevied weather packets stored in our database for station/object WC4PEM-13. If no packets are shown the sender has not sent any weather packets the latest 10 day(s).
| Time | Temp. | Humidity | Pressure | Rain* | Wind** | Luminosity | Snow |
|---|---|---|---|---|---|---|---|
| 1788557256 | 31.11° C | 82% | 1013.7 hPa | 0 mm | - | - | - |
| 1788556956 | 31.11° C | 81% | 1013.8 hPa | 0 mm | - | - | - |
| 1788556656 | 31.11° C | 81% | 1013.8 hPa | 0 mm | - | - | - |
| 1788556356 | 31.11° C | 81% | 1013.9 hPa | 0 mm | - | - | - |
| 1788556056 | 30.56° C | 83% | 1014 hPa | 0 mm | - | - | - |
| 1788555756 | 30° C | 83% | 1014 hPa | 0 mm | - | - | - |
| 1788555456 | 30° C | 84% | 1013.8 hPa | 0 mm | - | - | - |
| 1788555156 | 30° C | 84% | 1013.8 hPa | 0 mm | - | - | - |
| 1788554856 | 30° C | 84% | 1013.6 hPa | 0 mm | - | - | - |
| 1788554556 | 30° C | 85% | 1013.7 hPa | 0 mm | - | - | - |
| 1788554256 | 30° C | 81% | 1013.8 hPa | 0 mm | - | - | - |
| 1788553956 | 30° C | 81% | 1013.7 hPa | 0 mm | - | - | - |
| 1788553656 | 30° C | 81% | 1013.8 hPa | 0 mm | - | - | - |
| 1788553356 | 30.56° C | 83% | 1013.6 hPa | 0 mm | - | - | - |
| 1788553063 | 30.56° C | 82% | 1013.7 hPa | 0 mm | - | - | - |
| 1788552756 | 31.11° C | 81% | 1013.7 hPa | 0 mm | - | - | - |
| 1788552456 | 31.67° C | 79% | 1013.6 hPa | 0 mm | - | - | - |
| 1788552156 | 32.22° C | 77% | 1013.9 hPa | 0 mm | - | - | - |
| 1788551856 | 33.33° C | 76% | 1013.7 hPa | 0 mm | - | - | - |
| 1788551556 | 34.44° C | 74% | 1013.5 hPa | 0 mm | - | - | - |
| 1788551256 | 34.44° C | 73% | 1013.5 hPa | 0 mm | - | - | - |
| 1788550956 | 34.44° C | 74% | 1013.8 hPa | 0 mm | - | - | - |
| 1788550656 | 34.44° C | 70% | 1013.8 hPa | 0 mm | - | - | - |
| 1788550356 | 35° C | 73% | 1013.9 hPa | 0 mm | - | - | - |
| 1788550056 | 34.44° C | 74% | 1014.1 hPa | 0 mm | - | - | - |
* Rain latest hour (hover to see other rain measurements)
** Current wind speed in m/s (hover to see current wind gust speed)